GFSCGP_700_rhum_072.txt.gz
RH
52 50 44 38 52 65 60 57 58 48 39 48 40 38 24 26 24 22 21 25 25 24 24 33 41 47 39 38 28 16 11 20 18 22 24 38 73 87 80 90 90 86 91 99
68 65 53 51 46 56 60 58 55 48 39 47 42 37 33 29 26 22 21 25 30 26 30 33 39 39 41 44 34 17 12 16 16 25 35 45 92 91 99 99 99 98 96 100
73 65 72 70 61 58 62 60 58 56 46 49 42 35 36 27 23 22 22 24 27 29 32 33 35 39 43 40 36 18 10 14 16 32 56 62 74 84 91 92 95 100 99 100
82 76 79 84 80 69 67 63 70 63 57 52 47 59 36 28 26 23 22 22 22 22 34 32 36 40 43 35 33 21 10 10 16 37 63 65 72 85 88 94 98 99 100 100
59 65 70 84 73 78 85 76 84 76 69 60 48 53 39 33 31 25 24 25 22 20 28 31 29 27 38 40 31 22 11 8 17 32 55 66 68 75 76 77 96 96 99 100
58 66 70 66 68 99 86 99 86 74 64 74 52 53 42 34 30 26 25 25 24 20 24 32 29 32 33 38 32 22 13 8 16 19 36 57 63 70 70 64 62 86 88 97
46 48 61 70 77 99 84 96 85 78 82 74 44 47 42 34 27 25 26 26 23 22 21 29 26 28 30 35 38 22 16 9 13 18 22 31 50 66 74 77 72 71 90 97
46 51 71 72 82 93 90 93 96 90 91 78 46 46 37 39 32 26 26 28 21 21 19 21 23 29 32 37 37 23 17 14 11 16 20 23 27 34 55 72 78 84 94 88
49 59 72 74 84 95 99 99 82 95 94 95 62 50 35 32 35 29 30 26 23 20 22 23 28 32 34 35 36 24 20 20 13 13 19 23 25 28 32 43 60 82 98 96
55 56 53 63 80 98 93 96 95 98 96 94 62 52 56 36 47 32 29 27 25 25 25 25 30 32 31 30 38 27 23 23 21 21 30 30 25 26 31 34 40 55 80 89
66 62 60 76 93 90 99 98 97 96 88 98 90 88 66 62 61 49 34 29 30 28 30 32 35 37 36 41 44 41 25 26 28 35 38 41 42 37 30 30 36 43 54 70
78 86 84 59 55 64 83 95 96 99 92 88 96 92 96 87 67 62 49 41 40 40 40 42 42 41 43 53 63 65 40 28 30 35 38 39 40 44 46 40 32 37 38 44
62 85 84 68 60 81 79 96 95 96 98 98 99 83 100 99 84 79 61 49 48 44 41 42 46 48 52 61 71 80 74 54 41 33 33 36 38 40 46 48 45 34 35 36
54 60 60 78 85 93 97 90 94 94 99 90 91 88 96 99 100 90 82 62 52 62 62 48 51 55 60 67 77 86 94 82 71 62 61 61 58 54 51 48 52 52 42 35
56 58 68 83 67 74 87 94 88 99 90 99 82 92 89 98 100 97 99 80 64 59 63 75 78 71 66 64 64 65 64 65 59 55 51 55 57 58 57 60 64 61 56 56
77 74 82 59 68 87 80 70 86 90 98 96 94 93 96 99 99 100 99 86 64 73 71 75 61 64 62 66 72 77 88 73 65 56 55 48 47 47 49 51 57 56 56 57
76 78 75 71 78 61 67 59 68 71 99 92 99 94 98 99 99 100 100 96 78 65 75 64 80 60 49 64 63 66 68 73 70 65 57 54 51 49 50 50 46 44 47 53
56 60 73 80 60 94 59 65 61 72 94 97 95 95 99 95 97 99 99 95 91 91 70 49 40 41 46 48 50 45 56 59 59 64 68 65 61 56 49 48 48 48 48 47
47 48 67 66 61 57 42 74 78 83 98 98 97 99 100 99 99 99 94 88 83 72 61 54 51 51 48 44 40 41 35 24 24 32 43 55 56 54 49 47 50 50 50 49
70 60 65 70 77 86 66 88 85 96 99 98 100 96 82 99 99 97 89 85 78 70 60 49 38 32 29 30 28 28 26 23 21 20 21 21 21 32 54 57 53 48 47 51
80 90 83 90 87 60 32 39 93 93 98 99 99 100 100 96 93 85 92 87 72 62 51 37 33 34 31 24 18 18 20 21 21 23 21 21 25 26 24 27 46 58 56 55
73 75 91 90 90 85 35 83 58 93 98 99 99 94 86 99 99 94 85 70 50 42 40 40 39 35 27 17 19 19 16 14 13 27 33 35 30 26 27 32 33 47 62 62
86 88 97 81 62 86 68 66 80 63 98 98 98 96 99 99 97 68 58 51 48 47 45 42 38 33 24 19 19 18 16 16 15 17 26 24 21 33 42 39 38 40 52 76
94 95 96 91 80 70 77 83 92 88 73 80 94 94 81 69 55 53 50 45 40 37 34 32 29 26 27 25 22 20 18 16 16 18 23 32 43 48 50 50 52 67 79 86
96 90 91 97 98 92 93 95 99 100 98 97 76 65 62 60 56 49 43 42 43 39 35 36 36 35 33 32 32 32 32 31 36 39 47 53 56 56 54 54 65 66 71 79
96 98 97 97 95 97 99 100 98 98 96 95 80 83 79 74 50 43 40 40 41 42 45 45 41 37 36 37 42 45 46 48 53 60 64 62 61 62 63 65 66 71 81 88

GFSCGP_700_rhum_075.txt.gz
RH
16 35 40 38 47 44 60 67 62 56 50 45 42 38 34 29 30 27 20 21 21 21 24 23 23 24 40 47 42 34 28 14 15 11 16 23 35 51 86 99 97 99 100 100
43 35 33 51 52 47 53 59 64 61 55 53 48 47 42 32 27 26 23 23 22 23 26 26 25 26 37 43 43 36 33 12 14 14 22 33 44 68 90 89 97 98 99 100
55 39 57 70 71 62 60 60 60 61 56 48 52 47 39 28 27 32 28 24 22 23 28 29 28 31 36 42 45 36 33 13 14 17 33 55 52 81 88 98 98 95 95 95
80 62 67 75 80 75 80 63 58 65 61 68 57 64 50 37 28 32 30 23 22 24 28 29 32 32 35 44 45 33 28 12 13 20 45 61 64 71 82 88 95 95 97 100
66 66 69 67 65 77 90 76 80 73 75 92 76 68 55 41 32 31 28 23 23 24 24 22 24 33 34 42 47 33 25 13 12 19 37 57 58 62 78 79 86 93 91 99
64 64 62 56 73 78 91 91 82 81 89 99 78 62 52 39 31 33 29 27 26 26 27 24 22 32 34 44 46 37 26 14 11 18 22 52 54 60 64 66 65 70 100 100
48 40 39 56 73 77 90 95 90 97 97 86 50 55 50 34 34 35 31 25 24 25 27 28 22 28 34 45 44 39 26 16 11 18 20 31 55 58 62 66 66 70 96 96
50 42 54 67 68 86 90 90 93 90 92 72 52 54 47 33 34 36 33 28 25 28 27 24 22 23 33 45 38 38 24 17 11 17 20 24 33 55 58 62 69 76 83 89
45 52 64 70 76 90 99 99 86 98 99 97 61 53 42 37 39 40 31 26 26 26 22 22 20 21 35 43 38 46 25 18 14 14 21 23 26 30 37 47 65 80 87 89
53 55 56 65 80 93 98 99 98 98 95 95 69 56 73 64 57 32 28 27 30 23 22 21 20 26 36 36 45 53 26 19 18 14 20 24 25 28 30 31 35 48 73 86
62 60 74 81 82 82 95 98 98 97 94 98 94 96 100 84 67 57 43 33 29 24 22 22 24 35 33 46 54 66 46 20 22 21 29 35 35 33 31 31 36 40 49 76
83 85 82 67 60 61 65 77 97 98 98 92 99 86 100 91 76 71 67 45 30 28 26 27 32 35 37 51 59 69 70 38 23 24 26 26 30 35 38 35 33 39 46 49
82 80 68 69 73 82 90 93 90 98 96 96 96 87 100 100 97 90 100 69 46 32 30 30 32 37 42 52 62 71 79 78 49 29 26 28 30 31 32 33 35 36 37 43
64 56 59 71 70 86 96 95 99 99 99 98 92 89 93 99 100 100 99 92 68 51 41 38 41 43 47 53 61 68 77 66 51 38 34 35 34 36 38 40 40 42 39 38
62 58 60 49 56 71 77 74 92 96 90 99 82 89 92 93 96 99 100 88 72 77 62 51 49 50 51 57 64 70 68 70 70 60 54 53 48 50 50 51 54 55 54 53
78 73 80 70 55 84 82 74 80 79 91 97 94 94 92 96 94 100 99 100 91 76 73 84 83 78 75 80 91 83 81 73 75 69 65 62 60 60 58 58 59 54 49 47
65 68 70 66 60 51 51 58 70 71 73 63 72 97 94 94 89 99 99 99 98 100 80 74 70 71 72 69 69 78 86 87 82 69 63 60 56 52 56 54 54 56 58 59
60 58 60 62 53 82 36 70 78 78 64 69 83 94 99 98 94 100 99 99 99 96 92 77 64 60 64 64 52 48 52 57 59 61 61 58 56 54 51 52 51 48 48 54
51 51 69 63 61 46 21 83 84 97 90 86 96 99 98 100 99 99 99 99 99 97 97 95 77 69 52 46 43 39 37 36 36 33 29 28 29 35 39 43 44 45 44 44
68 60 78 68 80 83 59 58 45 82 92 83 99 98 99 99 100 99 98 99 97 82 84 62 41 34 32 31 30 27 26 26 25 23 22 20 19 18 17 17 17 18 19 29
68 74 78 89 88 69 24 24 53 69 95 90 98 98 99 97 99 99 96 98 94 56 46 42 39 37 35 32 24 18 16 16 16 18 18 19 22 22 22 25 27 27 27 26
83 90 82 88 93 88 41 31 77 77 61 80 99 100 99 99 99 100 94 92 90 59 46 44 43 42 39 34 26 20 19 18 16 14 13 12 16 22 19 14 12 16 22 27
87 95 96 92 82 76 85 68 60 71 83 78 99 99 99 99 100 98 98 90 64 49 50 48 42 35 31 27 23 22 21 21 19 19 17 15 15 15 17 20 26 32 37 36
90 92 93 96 92 91 79 60 51 81 91 82 80 96 97 98 96 80 60 55 48 43 39 36 32 30 30 30 28 27 25 24 26 28 30 33 38 41 44 45 45 46 47 47
98 90 93 96 100 94 95 82 73 94 100 96 98 97 85 71 68 61 55 48 43 40 39 37 36 38 37 36 35 33 33 39 41 42 44 48 49 51 54 56 57 58 59 62
94 89 88 98 100 99 95 99 98 94 99 97 97 92 84 73 71 61 49 42 39 40 44 46 47 46 45 46 47 50 53 57 60 55 55 56 58 59 62 64 65 67 68 71

GFSCGP_700_rhum_078.txt.gz
RH
24 26 15 10 20 32 43 48 50 53 57 62 57 51 48 43 38 37 32 27 25 22 22 22 21 21 22 22 32 46 46 37 28 13 17 18 24 31 45 72 93 100 97 100
29 18 15 30 44 49 50 50 49 50 52 60 62 58 54 45 37 32 29 27 24 21 22 21 21 24 25 24 35 47 47 36 28 12 18 21 28 36 49 89 90 100 100 100
27 33 40 42 59 62 68 64 56 55 53 54 60 59 55 45 42 39 33 26 24 22 22 23 26 26 26 27 39 45 51 37 25 12 16 25 43 48 59 88 92 91 100 100
40 37 49 56 56 68 82 70 80 83 81 76 68 78 60 50 44 40 29 21 31 25 23 23 28 29 30 32 40 48 47 35 18 11 18 35 60 64 72 84 88 90 96 99
44 57 65 62 50 70 81 76 88 89 83 79 81 71 63 56 52 38 28 31 32 25 23 23 26 24 32 34 40 48 40 32 16 11 19 37 56 60 71 83 90 90 88 97
54 59 65 58 53 64 82 84 82 88 90 94 76 76 68 50 40 31 25 34 31 27 24 23 25 27 31 35 39 49 44 35 16 12 18 30 57 56 61 73 82 88 96 96
64 45 38 43 45 56 80 91 91 98 96 85 60 81 58 44 39 36 32 34 31 30 28 27 27 24 25 34 37 47 45 36 17 13 18 23 56 62 66 72 72 67 72 90
44 40 39 47 53 70 84 92 85 95 97 91 61 62 46 50 49 44 32 32 32 28 27 26 27 26 23 29 36 46 48 40 16 14 19 21 34 60 66 69 72 71 76 94
48 43 54 64 76 81 96 98 93 97 100 99 65 54 50 49 48 48 40 31 30 27 26 24 27 25 23 28 36 45 49 42 17 14 21 23 25 38 59 68 72 74 76 81
51 52 61 59 75 89 96 98 99 98 97 95 71 70 93 89 68 54 38 22 28 27 27 26 25 25 22 29 37 46 58 46 18 15 22 26 29 29 32 33 43 57 71 76
55 60 77 82 73 81 96 97 93 98 96 94 97 87 100 99 99 76 56 34 29 26 27 28 26 23 21 32 39 50 62 47 19 16 20 28 31 32 33 36 38 42 52 74
63 83 83 71 67 68 86 86 84 96 99 97 99 81 94 96 100 100 78 46 31 24 29 26 25 21 26 36 42 57 65 62 23 21 22 29 31 33 36 40 44 45 47 49
83 91 73 74 88 92 95 97 94 95 96 96 98 80 86 99 99 100 99 61 44 37 30 25 23 25 36 39 53 62 72 73 40 22 26 30 32 32 33 33 35 37 40 47
71 66 55 63 56 64 69 84 94 94 99 96 90 76 82 88 97 100 98 100 96 77 51 35 30 34 36 44 60 63 63 59 49 35 28 29 31 34 36 36 38 40 42 39
79 61 57 54 57 56 65 73 71 78 74 98 75 90 82 81 99 91 99 100 100 100 96 65 54 42 41 50 60 63 63 60 63 63 52 43 38 40 44 48 51 52 51 50
73 72 70 55 50 46 54 49 42 51 60 68 73 72 67 87 80 87 98 99 100 100 100 94 96 78 63 58 60 70 77 84 85 88 78 74 71 68 64 61 61 63 61 58
65 61 60 56 48 42 29 62 82 94 79 72 76 56 84 98 85 93 97 99 97 98 95 91 85 83 90 83 82 86 91 97 89 97 76 72 66 67 66 62 59 61 60 57
63 61 64 60 43 71 31 58 64 86 87 83 72 84 90 99 99 99 99 100 99 98 96 97 95 90 79 71 80 97 94 99 92 86 74 76 77 74 71 69 68 66 59 53
63 63 62 51 68 47 33 58 54 81 58 79 87 88 88 100 100 100 99 100 99 99 98 96 90 82 85 68 64 64 58 52 51 50 48 46 42 42 45 42 34 35 38 41
56 64 78 75 80 79 28 73 59 33 53 88 91 100 99 99 100 99 99 99 99 99 99 98 95 92 70 52 35 31 30 31 31 29 28 27 25 23 22 21 20 20 19 19
60 71 76 85 87 69 45 44 36 51 64 72 78 85 100 99 99 99 99 97 97 94 72 54 46 42 41 56 36 26 20 18 16 15 15 17 19 19 21 23 23 24 24 23
73 78 84 97 96 88 63 70 52 79 63 70 86 92 100 99 99 98 98 98 90 82 70 51 45 44 42 39 36 30 23 18 17 17 16 15 14 13 13 14 14 12 12 12
83 86 90 90 84 65 66 70 67 57 55 80 99 98 99 99 99 98 98 98 96 65 54 50 44 38 33 31 30 28 25 24 22 21 20 18 18 19 22 23 23 23 26 24
96 88 97 95 87 87 93 94 85 78 75 79 98 91 96 97 97 96 95 81 60 51 46 42 39 36 37 39 39 37 34 32 30 28 26 28 28 29 29 30 36 42 44 44
91 97 95 99 98 99 98 100 100 100 92 91 99 97 97 96 95 89 86 70 58 51 45 41 41 43 43 42 41 40 37 38 40 42 46 49 53 53 50 51 54 56 58 61
96 96 97 100 100 98 98 99 98 99 99 97 98 98 96 94 94 93 64 55 48 44 46 52 56 56 54 54 55 58 53 52 54 58 63 66 66 66 66 66 65 66 67 67

GFSCGP_700_rhum_081.txt.gz
RH
25 26 16 9 13 21 29 38 54 39 39 42 34 32 38 47 50 49 39 38 34 24 23 22 22 21 22 22 23 24 35 55 47 41 24 14 17 20 26 34 57 76 70 100
46 43 25 25 32 39 51 56 52 46 47 56 51 44 43 40 45 46 43 41 32 24 22 22 23 21 21 22 23 23 35 51 51 41 25 14 18 25 34 42 59 80 85 99
42 34 36 38 36 47 58 66 61 72 70 63 53 51 37 41 40 40 43 45 33 26 19 23 22 21 20 21 24 24 38 48 56 42 21 16 21 35 48 52 76 92 88 100
48 34 34 49 61 68 70 56 68 78 91 78 77 65 62 48 41 42 35 35 33 26 22 20 20 20 20 24 26 28 43 50 57 40 18 18 28 54 63 69 91 84 86 98
26 30 51 53 45 54 69 64 76 72 95 99 84 82 63 50 42 36 38 35 32 24 28 26 19 22 25 28 29 37 44 51 46 36 15 21 32 59 61 78 86 88 98 100
38 50 70 70 70 65 70 64 69 79 98 88 68 75 61 53 50 49 42 34 35 35 32 25 23 23 28 30 32 38 45 52 52 32 15 24 30 54 59 71 79 92 99 100
71 59 52 56 62 57 53 76 73 79 90 64 67 79 59 64 68 54 42 40 37 34 31 25 23 24 26 29 34 37 43 53 58 30 16 24 31 56 59 69 82 89 92 99
61 48 47 47 50 51 72 78 73 80 78 74 73 66 69 87 80 69 45 36 38 34 31 30 24 25 25 25 34 36 41 54 60 23 18 23 30 56 62 70 78 79 80 84
50 46 53 72 73 74 89 99 82 90 82 93 67 62 63 78 71 53 51 48 37 32 32 28 28 28 30 26 29 38 41 53 63 20 18 23 28 47 61 65 73 72 72 76
54 52 60 66 73 80 86 96 99 95 86 80 61 70 84 86 63 60 54 37 32 28 30 29 27 29 28 28 25 36 43 56 68 19 20 24 26 31 42 49 55 52 60 68
65 59 80 80 71 74 93 97 92 98 97 78 76 66 98 87 94 98 83 57 41 26 28 28 29 31 27 27 24 36 45 62 67 21 20 25 26 28 32 38 44 49 48 61
62 64 66 66 70 76 80 95 95 98 92 99 96 78 82 98 98 97 99 96 56 42 32 28 30 30 29 26 26 37 47 64 66 26 20 25 26 28 31 34 38 44 48 52
81 84 86 84 94 86 95 96 99 99 98 96 89 70 91 89 86 90 93 100 97 54 37 36 31 30 31 30 30 40 56 65 64 34 21 25 32 36 37 38 37 37 38 42
96 99 83 63 67 66 66 61 84 90 94 97 91 80 61 70 73 90 98 99 100 99 73 59 58 41 33 29 36 48 63 65 66 51 24 24 32 35 36 38 40 43 44 43
92 96 88 62 55 49 50 48 49 63 60 80 53 66 43 54 70 84 94 98 100 100 100 98 74 49 45 48 51 59 64 64 64 63 36 28 30 30 32 34 40 47 49 46
97 95 94 75 52 46 38 28 30 44 62 71 82 63 70 66 80 91 87 96 99 100 99 100 99 75 50 60 58 66 67 68 73 76 78 69 56 56 61 67 65 63 64 63
94 85 74 59 48 34 30 59 59 65 84 88 87 87 84 81 90 91 92 99 98 100 100 100 100 100 97 92 96 86 79 87 85 79 80 82 80 71 65 63 65 66 67 68
86 73 67 61 46 45 42 38 71 64 60 57 67 87 85 84 91 100 100 100 100 97 99 100 100 100 98 97 94 99 99 99 100 100 99 99 93 79 67 63 65 69 60 68
81 75 70 61 74 37 38 54 55 43 43 98 95 87 100 97 92 99 100 99 100 99 98 99 97 94 99 99 100 99 100 100 96 99 99 99 92 82 78 77 71 67 68 63
71 77 82 75 69 53 59 68 44 49 54 80 76 89 86 100 99 99 99 99 100 99 99 99 96 98 98 94 91 82 65 64 70 72 71 53 50 42 39 34 30 31 32 36
71 71 86 97 87 63 53 54 42 44 84 69 49 82 77 100 100 99 99 98 98 98 98 97 97 96 92 75 48 41 42 41 34 22 22 22 22 22 23 22 23 23 23 24
73 76 89 99 98 81 64 73 66 81 67 60 58 81 78 100 98 98 98 97 96 79 66 59 57 48 47 44 43 50 46 36 21 20 20 18 18 17 16 15 15 14 15 14
86 86 95 85 84 78 74 86 85 82 82 85 83 82 94 98 97 98 98 97 97 97 95 91 72 49 37 34 33 29 29 27 23 22 23 22 21 22 21 19 19 18 20 22
91 94 98 90 84 82 84 82 84 92 100 100 98 96 96 98 97 97 97 97 96 90 73 56 48 43 42 40 39 37 35 33 32 31 31 29 32 34 31 30 28 30 32 32
90 90 90 88 83 86 84 86 99 96 99 100 99 98 98 98 97 96 93 93 84 68 59 53 52 54 54 52 51 49 47 45 44 40 41 41 40 40 42 44 48 51 50 51
95 95 96 96 88 91 84 95 97 92 98 98 98 96 97 97 96 96 95 93 93 67 59 62 64 65 62 60 59 57 56 55 53 51 52 53 53 53 54 57 58 58 57 58

GFSCGP_700_rhum_084.txt.gz
RH
15 42 40 36 43 36 32 31 31 34 36 42 44 40 38 38 36 39 47 43 40 39 35 21 24 22 21 22 22 23 25 28 42 56 54 43 19 14 14 19 26 45 60 72
49 40 34 39 43 48 41 38 37 38 46 56 50 47 44 43 38 32 43 46 44 44 40 32 25 23 22 22 22 23 23 28 37 57 58 44 22 15 19 26 33 47 55 70
52 50 45 53 57 57 50 46 42 50 62 64 60 43 37 42 27 29 31 29 44 46 42 37 33 23 22 22 21 22 22 26 36 57 58 46 18 18 24 40 44 58 67 88
64 58 49 54 54 55 46 60 72 70 70 49 60 42 35 42 44 46 48 46 43 44 40 36 30 25 22 21 21 21 22 25 42 54 59 47 15 19 35 59 59 76 91 89
53 46 36 56 54 73 62 79 77 77 72 66 58 57 31 44 46 49 47 49 48 44 42 39 30 21 22 21 21 21 22 32 44 53 59 34 15 20 46 54 65 86 95 96
57 60 49 72 78 66 80 74 76 75 71 70 50 51 33 47 76 79 83 81 64 53 44 30 25 20 19 21 21 21 24 38 42 54 53 22 16 20 48 51 60 80 88 95
51 64 64 66 83 92 85 70 43 60 77 44 52 54 42 76 94 89 69 53 53 42 38 37 33 30 22 18 20 24 30 35 47 56 60 18 18 22 50 49 59 71 81 100
52 52 72 80 70 58 70 56 44 50 44 39 55 49 54 91 99 100 70 56 44 42 40 36 33 26 23 22 26 30 34 42 46 58 62 17 20 22 50 54 62 66 74 82
57 50 51 66 69 75 82 82 76 78 66 62 40 46 75 87 98 69 62 50 50 39 36 34 34 26 24 24 30 32 34 35 47 60 58 16 22 22 47 55 66 73 74 75
73 56 61 70 79 86 91 86 96 86 72 57 34 41 55 95 86 54 49 53 45 41 36 33 32 31 26 30 29 32 35 41 53 62 55 16 24 23 37 49 56 62 66 69
78 60 72 66 79 74 98 97 94 90 86 63 46 43 91 93 72 83 79 83 55 38 30 31 31 30 29 29 29 29 33 38 52 61 55 17 24 26 28 36 40 41 49 60
83 79 54 66 88 84 83 88 90 74 80 87 91 56 90 86 71 55 66 71 90 55 45 36 31 31 29 32 31 31 32 40 55 61 55 17 23 28 30 32 35 38 38 40
97 82 59 69 86 76 90 96 89 95 92 78 80 63 76 85 100 45 71 79 92 94 84 49 34 31 32 33 33 33 34 47 61 62 56 18 22 27 29 32 34 36 36 36
97 98 70 49 62 78 90 87 90 94 88 80 70 59 55 53 64 79 68 81 86 94 99 83 45 40 38 33 32 33 42 55 62 66 56 21 22 30 34 38 39 39 40 39
97 98 99 80 75 70 70 69 65 65 70 59 47 41 49 66 85 53 74 88 93 96 100 99 98 78 69 46 44 51 65 62 69 61 61 26 22 31 36 37 36 37 38 40
97 97 95 97 76 60 49 42 41 42 42 49 62 62 71 88 96 69 92 93 95 98 100 99 100 98 99 86 86 98 96 76 77 72 66 36 29 32 33 35 38 54 63 64
97 96 88 93 69 49 39 45 55 64 72 73 69 75 84 95 84 90 99 98 96 98 100 100 100 100 100 99 100 100 100 94 92 79 74 68 55 53 58 70 71 72 74 73
94 97 72 59 57 40 50 70 60 53 73 96 92 99 95 99 98 96 99 99 99 99 98 100 100 100 100 100 100 100 100 100 98 91 98 82 79 84 83 79 72 72 72 72
89 93 73 59 50 39 51 75 74 71 73 80 73 63 83 86 100 99 99 98 99 99 99 97 99 100 100 100 100 100 100 100 100 94 95 100 100 91 97 88 85 77 75 74
60 79 86 76 53 38 78 80 52 47 69 91 68 51 72 82 97 98 99 98 99 99 99 98 95 97 98 99 100 100 99 100 100 100 99 100 100 99 99 100 98 91 73 65
89 88 78 65 62 59 45 54 50 72 83 60 53 63 68 79 89 100 98 98 98 98 98 98 99 97 97 98 98 97 93 80 75 76 87 86 56 54 49 37 31 29 27 26
75 73 76 68 69 64 62 70 85 83 82 66 51 70 80 98 100 99 98 97 98 98 97 96 92 86 90 96 94 92 67 56 51 46 38 26 24 24 20 22 25 24 24 26
81 74 92 82 94 82 78 83 82 76 100 97 72 90 83 100 99 99 98 98 98 96 95 94 67 56 49 48 46 43 55 43 41 42 37 30 22 20 21 23 24 22 23 25
75 80 95 88 98 95 90 78 77 95 95 97 100 98 97 99 97 98 97 96 97 97 95 96 88 68 48 43 41 39 38 38 39 38 36 32 29 31 38 40 38 35 33 40
88 86 86 100 99 87 82 82 91 91 84 94 92 97 97 97 97 97 97 94 93 92 91 72 60 54 52 50 47 46 46 48 48 47 51 53 50 48 48 47 44 44 47 49
99 97 96 100 96 92 90 80 86 93 88 96 97 97 96 97 97 96 96 96 96 96 90 72 66 63 61 59 59 60 61 61 58 58 60 57 51 50 51 51 50 52 53 52

GFSCGP_700_rhum_090.txt.gz
RH
50 42 32 30 28 29 30 30 30 27 27 25 23 22 21 22 22 25 24 18 23 27 31 32 32 32 31 25 29 35 40 33 26 28 26 26 30 44 53 41 30 12 12 14
50 44 37 32 33 31 30 33 31 31 33 29 27 23 23 25 28 30 28 27 29 28 28 34 33 34 30 25 29 34 44 29 27 26 22 27 31 40 54 48 33 14 13 18
41 38 36 36 35 31 28 28 27 28 30 32 30 29 28 22 23 26 32 32 32 30 30 31 36 34 34 27 34 46 52 28 26 24 30 29 29 33 49 50 37 14 15 21
32 35 35 36 41 37 33 32 33 31 28 31 31 35 35 29 25 29 33 36 39 37 33 33 37 36 35 34 35 42 37 34 26 22 27 24 26 34 50 52 40 14 16 27
37 36 36 36 38 42 39 37 35 38 43 47 44 40 30 25 24 25 48 57 56 58 44 38 37 39 38 37 36 38 37 26 24 22 23 23 25 32 46 54 26 15 23 50
35 34 36 40 42 41 40 43 40 44 47 54 43 34 30 26 51 65 71 70 62 58 59 48 39 39 40 39 41 43 36 27 22 22 23 22 26 40 40 44 16 15 41 53
39 35 34 38 47 49 53 53 43 48 53 51 41 48 31 40 73 88 66 65 78 69 65 59 54 57 49 42 51 44 36 32 24 24 24 25 27 42 44 32 15 20 48 56
35 30 31 41 42 45 46 49 44 60 52 42 58 77 41 67 62 75 83 76 80 54 48 60 69 69 63 50 57 59 40 33 27 24 24 25 36 45 43 22 15 38 50 57
71 49 55 49 44 38 43 74 53 56 63 56 40 54 55 90 79 74 88 79 68 60 50 46 49 57 63 66 74 67 57 41 30 24 23 27 42 47 42 19 17 43 53 62
77 75 53 52 64 47 48 49 64 63 82 54 32 29 34 72 81 76 72 49 62 61 52 47 45 58 70 62 84 73 54 44 34 24 27 35 45 51 47 17 21 45 54 60
74 94 61 60 91 67 51 52 72 75 68 66 67 69 98 100 96 88 61 39 58 69 65 55 48 55 59 52 59 81 53 45 28 32 32 34 48 50 46 17 22 42 44 35
83 78 87 62 53 73 75 48 57 89 67 55 61 64 91 99 71 86 91 49 51 62 76 65 62 51 46 45 50 98 58 42 43 39 32 41 51 52 36 17 22 29 29 31
88 81 82 50 42 60 97 67 70 85 97 96 98 69 99 62 53 85 73 70 57 65 80 77 92 98 54 61 59 43 54 53 53 39 43 52 51 54 25 18 23 26 28 32
66 77 78 78 67 87 98 83 70 82 99 88 96 96 89 86 91 98 77 69 62 67 78 83 100 100 89 66 62 62 67 74 55 57 57 53 51 55 27 20 24 26 32 34
91 97 88 77 78 85 88 98 67 82 78 98 89 74 95 89 94 77 66 79 71 74 80 90 99 100 100 90 67 93 80 53 54 47 52 54 52 57 41 21 23 26 30 34
97 98 96 96 78 78 64 96 94 96 88 76 41 66 98 84 89 87 89 88 79 81 85 90 98 100 100 99 99 92 90 57 65 56 56 56 62 62 36 24 26 29 34 40
92 99 97 78 63 99 95 59 54 42 90 85 90 100 89 70 72 74 81 97 98 82 93 88 96 100 99 100 98 96 98 78 68 99 93 84 80 62 35 32 32 35 39 41
95 94 97 91 78 93 58 46 50 88 98 90 99 100 62 58 57 55 69 78 97 90 96 94 96 100 100 100 100 100 100 100 99 100 99 100 100 61 43 41 44 45 43 42
86 91 95 96 95 71 72 67 63 74 98 94 83 68 70 53 52 58 85 100 100 100 98 93 94 99 99 99 100 100 100 100 100 99 100 100 99 75 55 59 57 52 49 45
90 87 97 96 71 72 97 94 74 72 97 97 74 55 43 54 47 83 100 99 99 98 100 99 99 97 98 98 98 99 100 100 100 100 100 100 100 84 72 93 92 86 94 100
91 95 95 95 69 97 80 77 44 66 99 74 62 55 51 45 68 99 99 99 100 98 99 99 99 100 99 97 97 96 97 98 99 97 98 98 100 100 100 100 100 100 100 100
79 80 72 72 61 95 64 67 62 82 64 68 78 69 79 84 98 98 97 98 98 98 98 98 98 98 97 96 97 98 96 95 97 97 94 96 97 98 97 97 97 98 99 99
96 96 96 96 98 100 85 71 66 61 61 77 88 95 91 94 97 97 97 98 99 97 97 98 95 95 96 96 96 96 95 96 97 93 95 95 96 96 96 95 95 97 95 96
98 92 96 99 99 99 84 73 68 73 82 82 96 96 92 95 97 98 100 99 98 97 94 91 93 94 96 95 95 95 96 98 96 96 98 94 97 96 97 96 96 96 98 94
93 92 95 98 100 94 94 76 75 86 86 89 92 95 96 94 96 96 97 97 98 98 97 97 97 96 96 94 94 94 95 95 96 95 96 96 95 96 96 95 94 94 94 92
90 88 91 100 97 98 87 80 77 94 94 96 94 94 96 97 96 96 96 96 97 96 96 96 96 96 95 95 96 95 93 91 92 87 81 85 84 76 78 76 75 77 73 65

GFSCGP_700_rhum_096.txt.gz
RH
36 53 26 17 17 16 18 20 27 30 30 30 31 30 28 27 27 25 24 23 23 24 25 28 32 31 26 25 27 27 30 27 30 33 43 54 49 54 38 38 34 33 36 44
43 46 20 40 44 37 31 31 32 32 33 34 31 29 29 28 21 18 21 24 23 22 23 24 28 31 32 29 31 30 30 33 32 32 37 53 47 44 49 50 38 34 32 41
47 26 45 53 52 52 46 40 36 36 35 36 35 32 32 30 27 25 27 28 24 25 31 25 21 23 23 30 32 33 34 34 33 32 38 54 54 55 46 44 43 32 31 40
46 39 38 35 43 41 45 38 40 37 38 42 41 42 35 31 32 31 32 32 28 34 38 31 25 27 30 27 29 32 36 34 35 30 34 49 46 37 37 37 33 30 32 34
36 41 37 41 41 39 38 37 36 43 44 45 44 44 28 37 35 32 33 34 43 31 33 38 32 31 32 31 30 35 36 33 34 29 30 32 41 42 35 36 31 28 32 37
48 41 45 39 36 36 37 38 43 42 42 50 42 48 45 40 42 48 53 66 62 70 54 56 42 36 31 38 34 35 36 36 32 28 27 32 55 37 36 35 28 26 31 40
28 26 21 31 38 36 43 34 59 65 66 53 39 44 44 48 53 59 64 82 82 76 71 62 50 40 34 32 36 36 35 41 34 34 42 56 49 40 35 34 27 26 37 48
47 55 41 46 60 61 55 36 50 83 77 65 64 59 52 58 62 71 69 61 88 98 82 64 59 55 41 35 34 41 42 47 54 48 58 59 46 37 32 31 26 26 35 50
67 60 56 52 50 52 62 51 46 48 57 79 67 55 51 60 71 82 84 88 99 79 95 66 54 51 66 54 45 45 47 61 59 60 67 58 57 44 30 25 26 30 46 43
71 69 58 45 30 32 57 70 70 60 86 78 63 56 67 69 82 99 98 95 86 73 68 50 49 48 64 65 63 60 59 70 74 78 75 65 58 42 30 29 29 37 50 38
52 51 55 45 39 37 32 43 91 89 64 75 76 72 94 95 87 91 91 99 72 58 60 63 52 48 52 66 67 69 62 61 77 95 99 89 74 41 31 31 35 50 49 30
59 58 64 52 28 26 23 32 59 98 92 79 74 79 87 97 91 98 99 97 78 56 59 55 58 50 48 56 64 70 68 65 72 76 100 98 78 58 36 37 49 54 56 25
71 73 75 51 34 68 92 91 93 93 96 98 94 82 80 92 98 98 98 79 72 63 57 59 59 58 56 55 60 66 77 95 77 73 75 95 80 56 43 47 51 56 48 25
80 86 76 72 67 76 79 56 45 89 96 94 88 92 94 95 98 83 90 85 67 60 59 56 69 62 72 78 78 63 75 84 100 98 82 75 64 61 46 50 56 60 47 26
80 86 77 77 85 72 57 54 33 63 68 99 95 99 95 96 98 81 74 74 71 75 70 76 79 72 96 97 99 97 98 85 99 73 87 96 85 95 98 54 62 71 44 29
80 84 90 71 61 55 90 83 62 48 94 97 96 98 98 94 87 64 57 62 62 73 76 84 76 71 77 97 99 98 98 97 99 100 89 99 100 98 100 77 78 67 71 59
68 76 81 80 69 79 70 39 38 98 96 96 97 98 97 76 59 62 57 52 65 84 84 84 74 72 80 95 100 98 100 99 100 98 100 100 100 99 98 84 92 74 68 79
46 62 73 82 88 87 97 97 91 88 97 96 96 95 65 52 38 68 66 74 94 88 83 82 81 85 93 98 100 99 100 100 100 91 95 97 98 96 94 85 93 99 100 83
23 60 79 90 90 72 91 97 97 96 97 96 82 63 56 52 51 72 74 96 94 88 85 83 80 78 87 92 97 100 100 99 100 100 100 100 100 96 91 95 99 100 100 99
70 54 71 97 96 96 96 98 95 97 98 83 72 66 58 67 80 88 100 100 96 91 91 86 85 86 85 86 92 97 97 99 99 99 100 100 100 100 100 100 100 100 99 95
95 95 93 96 94 95 94 97 98 92 95 90 76 66 73 95 91 99 98 95 98 100 96 89 88 88 86 83 88 95 96 97 98 97 100 99 99 99 100 100 100 100 100 100
96 96 96 97 96 94 83 73 61 90 99 91 89 87 88 97 100 99 99 98 96 97 94 89 88 86 90 94 90 94 96 95 95 99 97 96 97 97 98 98 98 99 99 98
94 97 96 96 95 96 100 92 95 98 91 87 92 91 92 96 99 98 99 100 100 100 99 96 95 91 91 93 94 98 95 98 98 96 96 97 97 96 97 96 97 96 96 96
96 96 96 93 98 100 96 95 92 90 89 94 98 97 95 97 95 99 97 98 99 98 100 98 96 93 94 94 94 94 94 96 96 96 97 96 96 96 96 96 97 96 96 96
94 95 90 91 92 88 89 83 89 94 93 98 99 99 99 96 97 97 96 95 95 98 100 98 95 94 95 93 95 94 95 95 95 96 95 95 94 94 95 96 95 95 95 95
88 94 97 97 91 86 80 84 100 100 100 99 97 97 98 94 95 94 96 96 98 97 97 95 94 93 92 92 93 94 88 82 80 81 85 85 87 88 88 89 91 92 92 93

GFSCGP_700_rhum_099.txt.gz
RH
41 42 29 26 21 20 25 32 26 17 27 31 30 29 28 28 29 26 25 25 24 24 23 21 21 21 25 29 30 27 24 25 25 27 30 31 33 53 80 74 51 43 42 36
44 44 18 32 47 54 55 49 36 38 35 36 36 34 29 34 29 22 23 25 26 26 23 22 21 23 23 28 32 28 24 24 26 27 28 30 30 40 54 62 75 68 47 40
35 20 46 51 51 52 51 51 47 43 39 41 39 38 38 31 23 23 20 22 26 29 33 26 23 23 26 25 28 32 32 27 26 28 30 33 35 36 48 58 66 56 48 41
41 30 42 42 41 41 43 40 38 38 41 44 43 46 26 22 28 33 25 31 40 34 31 46 35 25 26 29 25 27 31 33 33 31 30 34 34 33 44 55 46 43 43 51
30 45 46 40 37 38 42 40 39 40 44 46 38 48 21 26 34 30 43 50 57 80 77 70 55 36 34 29 24 24 24 23 32 34 36 34 33 33 37 47 51 58 48 51
40 46 48 42 40 33 40 46 41 37 43 51 41 44 40 38 40 46 51 60 66 67 56 59 72 68 57 35 31 21 21 28 32 32 41 37 35 32 42 47 70 51 46 40
25 23 26 27 26 38 47 52 52 60 67 54 41 53 44 43 54 65 69 75 74 66 63 62 63 80 76 52 44 32 33 33 32 34 44 36 38 31 38 49 71 52 43 35
36 40 38 56 58 52 57 61 52 69 80 66 48 59 46 48 56 69 68 75 82 86 73 73 77 75 65 68 59 35 36 37 36 39 41 40 38 37 55 75 57 48 46 42
44 59 58 58 47 39 51 54 70 72 60 66 55 54 56 58 71 70 73 60 94 100 100 98 76 87 80 66 59 58 42 40 40 43 48 45 48 58 59 68 48 44 45 47
57 54 45 33 21 18 38 40 61 82 92 75 59 58 54 61 65 62 62 69 92 95 99 99 99 89 68 55 52 68 67 48 54 58 57 61 63 76 76 61 53 45 46 43
46 46 47 47 38 32 32 34 34 72 84 94 78 63 67 50 55 73 77 67 98 94 90 84 80 77 79 74 79 74 72 61 63 65 81 77 83 97 82 73 61 53 42 50
51 49 58 41 27 60 49 61 62 85 76 89 96 85 88 78 89 84 71 98 97 83 81 67 72 73 71 91 86 80 69 65 64 69 86 99 100 98 99 83 66 51 45 60
66 66 68 42 58 53 48 54 66 85 94 96 94 96 83 98 99 87 95 98 92 80 79 72 74 75 77 80 81 87 75 74 69 67 73 81 80 84 99 76 65 49 53 55
71 70 71 64 56 68 76 63 56 59 82 85 80 61 84 99 99 93 81 91 82 77 79 81 83 77 79 99 82 82 88 75 62 75 82 75 91 99 100 81 54 50 50 56
64 72 77 74 75 73 68 58 50 58 52 88 45 72 98 92 99 89 90 80 72 77 85 89 82 78 82 100 100 90 66 76 74 68 86 91 94 98 96 87 59 57 58 61
78 80 82 79 77 65 69 35 34 46 72 94 67 94 100 89 97 91 83 69 77 86 87 86 78 71 74 93 99 100 97 97 85 93 86 95 100 94 96 68 82 69 71 71
46 66 84 78 67 70 62 56 76 47 72 84 100 98 89 85 97 68 72 66 90 87 85 80 77 80 90 99 100 100 99 95 96 98 99 99 88 98 100 99 95 97 84 64
62 79 86 84 76 78 62 95 86 80 100 100 99 96 96 88 86 76 85 88 92 88 85 81 79 85 91 100 100 100 92 100 100 100 98 100 100 100 90 100 99 98 89 84
73 62 90 78 86 64 74 96 96 98 96 97 97 88 76 87 92 98 99 100 99 93 83 82 84 83 88 94 100 99 99 100 100 100 100 100 100 100 100 96 100 98 91 94
87 84 78 93 94 95 96 97 95 96 96 94 77 75 86 98 98 99 100 100 100 94 89 89 90 93 90 88 100 97 95 96 99 100 99 100 100 100 99 100 100 100 99 100
94 98 88 86 93 88 97 96 96 97 98 94 95 85 99 100 100 96 93 96 100 97 93 92 98 94 86 84 96 100 97 96 96 95 96 98 98 100 98 99 99 100 100 99
96 96 95 96 95 93 96 96 93 100 100 100 100 97 100 99 99 96 95 97 97 96 95 95 97 98 94 94 98 98 96 88 92 96 94 95 97 98 96 98 99 98 99 99
92 96 95 97 96 95 96 97 100 100 100 100 100 98 100 100 96 93 95 96 96 96 97 95 97 99 100 97 94 97 90 96 94 96 96 95 97 94 95 97 98 99 96 96
96 96 96 96 97 100 100 100 100 100 100 100 100 96 96 100 95 96 97 98 98 97 97 96 96 98 98 93 94 90 89 88 92 93 92 91 93 93 96 97 96 96 97 96
94 95 94 93 96 95 96 99 100 100 100 97 95 94 95 95 99 99 100 100 99 99 98 98 97 98 95 89 87 85 84 84 86 86 82 81 82 89 93 94 95 96 95 96
93 92 95 97 95 97 93 100 100 100 100 100 95 94 94 94 99 100 100 100 100 100 99 97 98 95 93 90 83 78 74 71 72 71 68 68 67 72 77 77 80 86 88 92